Regional Weather Roundup
Issued by NWS

Home | Current Version | Previous Version | Graphics & Text | Print | Product List | Glossary On
Versions: 1 2 3 4 5 6 7 8 9 10 11 12 13 14 15 16 17 18 19 20 21 22 23 24 25 26 27
000
ASUS45 KSLC 202010
RWRUT

UTAH REGIONAL WEATHER ROUNDUP
NATIONAL WEATHER SERVICE SALT LAKE CITY UT
100 PM MST MON NOV 20 2017

UTZ001>011-023>025-202100-

NORTHERN UTAH

CITY           SKY/WX    TMP DP  RH WIND       PRES   REMARKS
BRIGHAM CITY   CLOUDY    40  28  60 CALM      30.12R
DUGWAY         CLOUDY    41  30  63 NW10      30.10R
HILL AFB       CLOUDY    41  30  64 N7        30.10S
LOGAN          CLOUDY    39  29  67 NW8       30.10S WCI  33
OGDEN          CLOUDY    41  32  70 CALM      30.10F
SALT LAKE CITY CLOUDY    45  34  65 NW7       30.11R
TOOELE VALLEY  CLOUDY    41  34  75 N5        30.11F
WENDOVER       LGT RAIN  40  27  59 VRB5      30.13S
HEBER CITY     CLOUDY    46  21  36 CALM      30.06F
WEST JORDAN    CLOUDY    42  33  71 NW9G16    30.10F

$$

UTZ011>015-024>027-202100-

CENTRAL/NORTHEAST UTAH

CITY           SKY/WX    TMP DP  RH WIND       PRES   REMARKS
PROVO AIRPORT  CLOUDY    48  27  44 NW3       30.08F
MOAB/CANYONLAN CLOUDY    43  14  31 NW6       30.16F
DELTA          CLOUDY    48  12  23 S3        30.09F
PRICE          PTSUNNY   41   8  25 VRB3      30.15F
RICHFIELD      SUNNY     48  21  34 CALM      30.11F
ROOSEVELT      CLOUDY    39  12  33 E3        30.13F
VERNAL         CLOUDY    39  13  34 VRB5      30.11F

$$

UTZ013>016-019>022-027-202100-

SOUTHERN UTAH

CITY           SKY/WX    TMP DP  RH WIND       PRES   REMARKS
BRYCE CANYON   MOSUNNY   49   2  14 SE8       30.18S
CEDAR CITY     PTSUNNY   58   4  11 SW16      30.12S
MILFORD        PTSUNNY   60  -1   8 S22G30    30.06F
ST GEORGE      CLOUDY    55   9  16 CALM      30.11F
HANKSVILLE     PTSUNNY   43  10  26 CALM      30.19F
KANAB          SUNNY     59   5  11 S8        30.17F
BLANDING         N/A     42   8  25 S3        30.23F

$$

REGIONAL REPORTS     COLORADO/ARIZONA

CITY           SKY/WX    TMP DP  RH WIND       PRES   REMARKS
CRAIG, CO      CLOUDY    39  20  46 NE5       30.09F
GRAND JUNCTION CLOUDY    42  18  37 W3        30.17F
RIFLE, CO      CLOUDY    36  19  50 W7        30.17F WCI  30
MONTROSE, CO   CLOUDY    39  20  46 NW5       30.18F
CORTEZ, CO     CLOUDY    49   8  19 W6        30.16F
COLORADO CITY    N/A     61  10  13 CALM      30.16F
PAGE, AZ       SUNNY     48  13  24 VRB3      30.16F
GRAND CANYON   SUNNY     59   0   9 W12G20    30.20F
KINGMAN, AZ      N/A     68  21  16 SW17      30.10F
FLAGSTAFF, AZ  SUNNY     58   5  12 W12G18    30.19F

$$

REGIONAL REPORTS    NEVADA/IDAHO/WYOMING

CITY           SKY/WX    TMP DP  RH WIND       PRES   REMARKS
LAS VEGAS, NV  PTSUNNY   63  10  12 NE5       30.09F
ELY, NY        PTSUNNY   55   6  14 NE3       30.13F
ELKO, NV       CLOUDY    47  36  65 NE3       30.09F
POCATELLO, ID  CLOUDY    43  28  55 W9        30.01F
BURLEY, ID     CLOUDY    45  36  70 S22G30    30.00F
FORT BRIDGER,    N/A     43  25  50 W9        30.08F
EVANSTON, WY   CLOUDY    40  23  50 W10       30.08F WCI  33
ROCK SPRINGS,  CLOUDY    39  18  42 W17       30.02F WCI  30
KEMMERER, WY   CLOUDY    36  21  55 W8        30.08R WCI  29

$$




USA.gov is the U.S. government's official web portal to all federal, state and local government web resources and services.